EN

Hourly Weather Kyzyldala

Today, 30 July, Friday

Time Temperature Precipitation Wind Pressure Humidity
00:00 +28°C° 0 mm 2 mps 713 mmHg 23%
01:00 +27°C° 0 mm 1 mps 712 mmHg 24%
02:00 +26°C° 0 mm 1 mps 712 mmHg 25%
03:00 +26°C° 0 mm 1 mps 713 mmHg 26%
04:00 +26°C° 0 mm 1 mps 713 mmHg 26%
05:00 +25°C° 0 mm 1 mps 713 mmHg 28%
06:00 +27°C° 0 mm 1 mps 714 mmHg 26%
07:00 +28°C° 0 mm 2 mps 714 mmHg 24%
08:00 +29°C° 0 mm 2 mps 715 mmHg 22%
09:00 +31°C° 0 mm 3 mps 715 mmHg 21%
10:00 +34°C° 0 mm 3 mps 715 mmHg 19%
11:00 +35°C° 0 mm 3 mps 715 mmHg 17%
12:00 +36°C° 0 mm 4 mps 715 mmHg 16%
13:00 +37°C° 0 mm 5 mps 715 mmHg 14%
14:00 +39°C° 0 mm 5 mps 714 mmHg 12%
15:00 +39°C° 0 mm 6 mps 714 mmHg 13%
16:00 +38°C° 0 mm 7 mps 714 mmHg 13%
17:00 +38°C° 0 mm 8 mps 714 mmHg 13%
18:00 +37°C° 0 mm 8 mps 714 mmHg 15%
19:00 +34°C° 0 mm 8 mps 714 mmHg 17%
20:00 +32°C° 0 mm 8 mps 714 mmHg 19%
21:00 +30°C° 0 mm 7 mps 714 mmHg 21%
22:00 +29°C° 0 mm 7 mps 714 mmHg 22%
23:00 +29°C° 0 mm 7 mps 714 mmHg 24%

Tomorrow, 31 July, Saturday

Time Temperature Precipitation Wind Pressure Humidity
00:00 +28°C° 0 mm 7 mps 713 mmHg 25%
01:00 +27°C° 0 mm 6 mps 713 mmHg 26%
02:00 +27°C° 0 mm 5 mps 713 mmHg 27%
03:00 +26°C° 0 mm 4 mps 713 mmHg 28%
04:00 +25°C° 0 mm 3 mps 713 mmHg 30%
05:00 +24°C° 0 mm 2 mps 712 mmHg 31%
06:00 +26°C° 0 mm 2 mps 713 mmHg 27%
07:00 +29°C° 0 mm 2 mps 713 mmHg 23%
08:00 +31°C° 0 mm 2 mps 714 mmHg 20%
09:00 +34°C° 0 mm 2 mps 714 mmHg 17%
10:00 +36°C° 0 mm 2 mps 714 mmHg 15%
11:00 +38°C° 0 mm 2 mps 714 mmHg 13%
12:00 +39°C° 0 mm 3 mps 713 mmHg 12%
13:00 +40°C° 0 mm 3 mps 713 mmHg 10%
14:00 +42°C° 0 mm 4 mps 712 mmHg 9%
15:00 +42°C° 0 mm 5 mps 712 mmHg 9%
16:00 +42°C° 0 mm 6 mps 712 mmHg 9%
17:00 +43°C° 0 mm 7 mps 712 mmHg 10%
18:00 +40°C° 0 mm 7 mps 712 mmHg 10%
19:00 +38°C° 0 mm 7 mps 712 mmHg 11%
20:00 +35°C° 0 mm 6 mps 712 mmHg 11%
21:00 +34°C° 0 mm 6 mps 711 mmHg 13%
22:00 +33°C° 0 mm 6 mps 711 mmHg 14%
23:00 +32°C° 0 mm 5 mps 711 mmHg 16%

Day after tomorrow, 1 August, Sunday

Time Temperature Precipitation Wind Pressure Humidity
00:00 +30°C° 0 mm 4 mps 711 mmHg 17%
01:00 +29°C° 0 mm 4 mps 711 mmHg 18%
02:00 +28°C° 0 mm 3 mps 710 mmHg 20%
03:00 +27°C° 0 mm 3 mps 710 mmHg 20%
04:00 +27°C° 0 mm 2 mps 710 mmHg 21%
05:00 +26°C° 0 mm 2 mps 710 mmHg 22%
06:00 +29°C° 0 mm 2 mps 711 mmHg 20%
07:00 +31°C° 0 mm 2 mps 711 mmHg 18%
08:00 +34°C° 0 mm 2 mps 711 mmHg 15%
09:00 +36°C° 0 mm 2 mps 712 mmHg 14%
10:00 +37°C° 0 mm 3 mps 712 mmHg 13%
11:00 +39°C° 0 mm 3 mps 712 mmHg 12%
12:00 +40°C° 0 mm 3 mps 712 mmHg 12%
13:00 +40°C° 0 mm 2 mps 711 mmHg 11%
14:00 +41°C° 0 mm 2 mps 711 mmHg 11%
15:00 +42°C° 0 mm 3 mps 711 mmHg 11%
16:00 +42°C° 0 mm 4 mps 711 mmHg 10%
17:00 +42°C° 0 mm 5 mps 710 mmHg 10%
18:00 +40°C° 0 mm 6 mps 710 mmHg 11%
19:00 +38°C° 0 mm 6 mps 710 mmHg 11%
20:00 +36°C° 0 mm 7 mps 710 mmHg 12%
21:00 +34°C° 0 mm 6 mps 710 mmHg 12%
22:00 +33°C° 0 mm 6 mps 710 mmHg 13%
23:00 +32°C° 0 mm 6 mps 710 mmHg 13%

2 August, Monday

Time Temperature Precipitation Wind Pressure Humidity
00:00 +30°C° 0 mm 5 mps 710 mmHg 15%
01:00 +29°C° 0 mm 4 mps 710 mmHg 17%
02:00 +28°C° 0 mm 3 mps 710 mmHg 19%
03:00 +28°C° 0 mm 3 mps 710 mmHg 20%
04:00 +27°C° 0 mm 2 mps 710 mmHg 22%
05:00 +27°C° 0 mm 2 mps 710 mmHg 23%
06:00 +29°C° 0 mm 2 mps 710 mmHg 21%
07:00 +31°C° 0 mm 2 mps 711 mmHg 19%
08:00 +34°C° 0 mm 2 mps 712 mmHg 17%
09:00 +36°C° 0 mm 2 mps 712 mmHg 15%
10:00 +38°C° 0 mm 2 mps 712 mmHg 13%
11:00 +40°C° 0 mm 2 mps 712 mmHg 11%
12:00 +42°C° 0 mm 3 mps 712 mmHg 10%
13:00 +43°C° 0 mm 4 mps 712 mmHg 10%
14:00 +44°C° 0 mm 4 mps 711 mmHg 9%
15:00 +45°C° 0 mm 5 mps 711 mmHg 8%
16:00 +44°C° 0 mm 6 mps 711 mmHg 8%
17:00 +44°C° 0 mm 6 mps 711 mmHg 8%
18:00 +41°C° 0 mm 6 mps 711 mmHg 8%
19:00 +39°C° 0 mm 6 mps 711 mmHg 9%
20:00 +36°C° 0 mm 6 mps 711 mmHg 10%
21:00 +35°C° 0 mm 6 mps 711 mmHg 11%
22:00 +34°C° 0 mm 5 mps 711 mmHg 13%
23:00 +32°C° 0 mm 5 mps 711 mmHg 14%

3 August, Tuesday

Time Temperature Precipitation Wind Pressure Humidity
00:00 +30°C° 0 mm 4 mps 711 mmHg 16%
01:00 +29°C° 0 mm 3 mps 711 mmHg 19%
02:00 +28°C° 0 mm 2 mps 712 mmHg 21%
03:00 +28°C° 0 mm 2 mps 712 mmHg 23%
04:00 +27°C° 0 mm 2 mps 712 mmHg 24%
05:00 +27°C° 0 mm 2 mps 712 mmHg 26%
06:00 +30°C° 0 mm 2 mps 712 mmHg 23%
07:00 +32°C° 0 mm 1 mps 713 mmHg 20%
08:00 +35°C° 0 mm 1 mps 713 mmHg 18%
09:00 +36°C° 0 mm 1 mps 713 mmHg 16%
10:00 +39°C° 0 mm 2 mps 713 mmHg 14%
11:00 +41°C° 0 mm 2 mps 713 mmHg 11%
12:00 +43°C° 0 mm 3 mps 713 mmHg 10%
13:00 +44°C° 0 mm 3 mps 713 mmHg 9%
14:00 +45°C° 0 mm 4 mps 712 mmHg 8%
15:00 +45°C° 0 mm 5 mps 712 mmHg 8%
16:00 +43°C° 0 mm 5 mps 712 mmHg 8%
17:00 +44°C° 0 mm 6 mps 712 mmHg 9%
18:00 +41°C° 0 mm 5 mps 712 mmHg 10%
19:00 +39°C° 0 mm 5 mps 712 mmHg 11%
20:00 +36°C° 0 mm 4 mps 712 mmHg 12%
21:00 +34°C° 0 mm 4 mps 712 mmHg 15%
22:00 +31°C° 0 mm 3 mps 712 mmHg 18%
23:00 +30°C° 0 mm 3 mps 713 mmHg 21%

4 August, Wednesday

Time Temperature Precipitation Wind Pressure Humidity
00:00 +29°C° 0 mm 2 mps 713 mmHg 23%
01:00 +29°C° 0 mm 2 mps 713 mmHg 25%
02:00 +28°C° 0 mm 1 mps 712 mmHg 27%
03:00 +28°C° 0 mm 1 mps 713 mmHg 27%
04:00 +27°C° 0 mm 1 mps 713 mmHg 27%
05:00 +27°C° 0 mm 1 mps 713 mmHg 27%
06:00 +29°C° 0 mm 1 mps 713 mmHg 24%
07:00 +31°C° 0 mm 1 mps 714 mmHg 21%
08:00 +34°C° 0 mm 1 mps 714 mmHg 17%
09:00 +37°C° 0 mm 2 mps 714 mmHg 15%
10:00 +39°C° 0 mm 2 mps 714 mmHg 13%
11:00 +41°C° 0 mm 2 mps 714 mmHg 11%
12:00 +43°C° 0 mm 3 mps 714 mmHg 10%
13:00 +44°C° 0 mm 3 mps 714 mmHg 9%
14:00 +45°C° 0 mm 3 mps 713 mmHg 8%
15:00 +44°C° 0 mm 4 mps 713 mmHg 8%
16:00 +45°C° 0 mm 6 mps 713 mmHg 8%
17:00 +45°C° 0 mm 7 mps 713 mmHg 8%
18:00 +42°C° 0 mm 6 mps 713 mmHg 10%
19:00 +39°C° 0 mm 5 mps 713 mmHg 12%
20:00 +36°C° 0 mm 4 mps 713 mmHg 14%
21:00 +35°C° 0 mm 4 mps 713 mmHg 16%
22:00 +33°C° 0 mm 4 mps 713 mmHg 18%
23:00 +32°C° 0 mm 4 mps 713 mmHg 20%
Show more